| time (UTC) | temp F | wind direction | speed MPH | gust MPH | rain 1hr in | rain 24hr in | rain mn in | humidity % | barometer mb |
| 20260506194836 | 52 | 53 | 2.0 | 4.0 | 0.00 | 1.70 | 1.69 | 93 | 1009.4 |
| 20260506193333 | 52 | 22 | 4.0 | 6.0 | 0.00 | 1.70 | 1.69 | 92 | 1009.1 |
| 20260506191841 | 52 | 58 | 0.0 | 3.0 | 0.03 | 1.70 | 1.69 | 92 | 1008.9 |
| 20260506190332 | 52 | 74 | 3.0 | 10.0 | 0.12 | 1.70 | 1.69 | 93 | 1008.6 |
| 20260506184835 | 53 | 99 | 5.0 | 12.0 | 0.19 | 1.70 | 1.69 | 92 | 1007.8 |
| 20260506183335 | 53 | 117 | 4.0 | 14.0 | 0.33 | 1.75 | 1.69 | 92 | 1008.2 |
| 20260506181829 | 54 | 107 | 10.0 | 13.0 | 0.30 | 1.72 | 1.66 | 91 | 1007.9 |
| 20260506180342 | 54 | 308 | 3.0 | 6.0 | 0.21 | 1.63 | 1.57 | 90 | 1008.9 |
| 20260506174834 | 55 | 55 | 7.0 | 11.0 | 0.14 | 1.56 | 1.50 | 89 | 1008.0 |
| 20260506173343 | 55 | 51 | 1.0 | 9.0 | 0.00 | 1.52 | 1.36 | 89 | 1007.6 |
| 20260506171835 | 55 | 73 | 3.0 | 7.0 | 0.00 | 1.52 | 1.36 | 90 | 1007.4 |
| 20260506170329 | 56 | 38 | 0.0 | 4.0 | 0.00 | 1.52 | 1.36 | 90 | 1007.2 |
| 20260506164838 | 56 | 70 | 2.0 | 7.0 | 0.00 | 1.52 | 1.36 | 90 | 1006.9 |
| 20260506163332 | 56 | 47 | 2.0 | 7.0 | 0.00 | 1.54 | 1.36 | 90 | 1006.9 |
| 20260506161828 | 56 | 28 | 8.0 | 19.0 | 0.00 | 1.54 | 1.36 | 90 | 1006.6 |
| 20260506160342 | 57 | 86 | 10.0 | 18.0 | 0.00 | 1.54 | 1.36 | 91 | 1006.1 |
| 20260506154839 | 57 | 78 | 6.0 | 14.0 | 0.00 | 1.54 | 1.36 | 93 | 1005.7 |
| 20260506153339 | 56 | 76 | 7.0 | 14.0 | 0.00 | 1.55 | 1.36 | 94 | 1006.3 |
| 20260506151838 | 56 | 5 | 5.0 | 10.0 | 0.15 | 1.55 | 1.36 | 94 | 1006.5 |
| 20260506150343 | 55 | 95 | 3.0 | 10.0 | 0.41 | 1.55 | 1.36 | 94 | 1006.7 |
| 20260506144834 | 56 | 78 | 5.0 | 11.0 | 0.57 | 1.55 | 1.36 | 94 | 1006.7 |
| 20260506143329 | 55 | 23 | 4.0 | 7.0 | 0.59 | 1.55 | 1.36 | 93 | 1006.6 |
| 20260506141842 | 55 | 37 | 1.0 | 8.0 | 0.46 | 1.41 | 1.22 | 93 | 1007.0 |
| 20260506140342 | 57 | 323 | 4.0 | 18.0 | 0.47 | 1.15 | 0.96 | 93 | 1006.9 |
| 20260506134837 | 56 | 19 | 2.0 | 15.0 | 0.42 | 0.99 | 0.80 | 93 | 1007.1 |
| 20260506133334 | 56 | 360 | 5.0 | 20.0 | 0.42 | 0.96 | 0.77 | 93 | 1006.8 |
| 20260506131831 | 56 | 137 | 3.0 | 12.0 | 0.41 | 0.95 | 0.76 | 92 | 1006.9 |
| 20260506130325 | 59 | 155 | 4.0 | 12.0 | 0.15 | 0.68 | 0.49 | 92 | 1007.0 |
| 20260506124844 | 60 | 98 | 9.0 | 14.0 | 0.05 | 0.58 | 0.39 | 91 | 1006.6 |
| 20260506123339 | 61 | 140 | 4.0 | 12.0 | 0.01 | 0.55 | 0.35 | 90 | 1006.7 |
| 20260506121839 | 61 | 184 | 5.0 | 20.0 | 0.02 | 0.55 | 0.35 | 89 | 1006.6 |
| 20260506120335 | 61 | 202 | 8.0 | 17.0 | 0.01 | 0.54 | 0.34 | 90 | 1006.5 |
| 20260506114828 | 61 | 184 | 9.0 | 18.0 | 0.01 | 0.54 | 0.34 | 91 | 1006.5 |
| 20260506113332 | 60 | 175 | 6.0 | 11.0 | 0.01 | 0.58 | 0.34 | 93 | 1006.6 |
| 20260506111825 | 59 | 232 | 5.0 | 12.0 | 0.00 | 0.57 | 0.33 | 93 | 1006.9 |
| 20260506110337 | 59 | 212 | 6.0 | 13.0 | 0.00 | 0.57 | 0.33 | 94 | 1006.9 |
| 20260506104831 | 58 | 104 | 6.0 | 14.0 | 0.00 | 0.57 | 0.33 | 96 | 1006.8 |
| 20260506103342 | 59 | 155 | 6.0 | 18.0 | 0.00 | 0.62 | 0.33 | 97 | 1007.2 |
| 20260506101838 | 57 | 187 | 6.0 | 19.0 | 0.00 | 0.62 | 0.33 | 97 | 1007.2 |
| 20260506100329 | 57 | 223 | 4.0 | 18.0 | 0.00 | 0.62 | 0.33 | 97 | 1007.1 |
| 20260506094829 | 57 | 175 | 10.0 | 14.0 | 0.00 | 0.62 | 0.33 | 97 | 1007.2 |
| 20260506093328 | 57 | 117 | 5.0 | 14.0 | 0.00 | 0.67 | 0.33 | 97 | 1007.2 |
| 20260506091840 | 56 | 180 | 9.0 | 14.0 | 0.02 | 0.67 | 0.33 | 97 | 1007.3 |
| 20260506090340 | 56 | 208 | 6.0 | 13.0 | 0.05 | 0.67 | 0.33 | 97 | 1007.0 |
| 20260506084841 | 56 | 163 | 6.0 | 11.0 | 0.07 | 0.67 | 0.33 | 97 | 1006.9 |
| 20260506083333 | 56 | 148 | 5.0 | 18.0 | 0.07 | 0.67 | 0.33 | 97 | 1007.2 |
| 20260506081828 | 56 | 186 | 4.0 | 10.0 | 0.08 | 0.65 | 0.31 | 97 | 1007.4 |
| 20260506080330 | 55 | 168 | 4.0 | 12.0 | 0.06 | 0.62 | 0.28 | 97 | 1007.4 |
| 20260506073337 | 56 | 181 | 10.0 | 18.0 | 0.06 | 0.73 | 0.26 | 97 | 1007.5 |
| 20260506071832 | 56 | 161 | 6.0 | 15.0 | 0.04 | 0.71 | 0.24 | 97 | 1007.4 |
| 20260506070329 | 56 | 108 | 5.0 | 11.0 | 0.02 | 0.69 | 0.22 | 97 | 1007.7 |
| 20260506061830 | 55 | 220 | 3.0 | 10.0 | 0.01 | 0.90 | 0.20 | 97 | 1007.5 |
| 20260506060330 | 55 | 188 | 5.0 | 11.0 | 0.02 | 0.90 | 0.20 | 97 | 1007.8 |
| 20260506050342 | 55 | 175 | 3.0 | 10.0 | 0.02 | 0.89 | 0.18 | 97 | 1007.9 |
| 20260506044840 | 55 | 194 | 4.0 | 7.0 | 0.02 | 0.89 | 0.18 | 97 | 1008.2 |
| 20260506043333 | 55 | 155 | 4.0 | 7.0 | 0.02 | 0.89 | 0.18 | 97 | 1008.3 |
| 20260506041832 | 55 | 194 | 3.0 | 9.0 | 0.02 | 0.88 | 0.17 | 97 | 1008.4 |
| 20260506040346 | 55 | 188 | 5.0 | 12.0 | 0.01 | 0.87 | 0.16 | 97 | 1008.6 |
| 20260506034835 | 55 | 180 | 6.0 | 10.0 | 0.02 | 0.87 | 0.16 | 97 | 1008.5 |
| 20260506033344 | 55 | 169 | 2.0 | 6.0 | 0.03 | 0.87 | 0.16 | 97 | 1008.5 |
| 20260506031844 | 55 | 205 | 3.0 | 11.0 | 0.03 | 0.86 | 0.15 | 97 | 1008.6 |
| 20260506030343 | 55 | 146 | 3.0 | 6.0 | 0.04 | 0.86 | 0.15 | 97 | 1008.6 |
| 20260506024839 | 55 | 195 | 4.0 | 11.0 | 0.03 | 0.85 | 0.14 | 97 | 1009.2 |
| 20260506023330 | 55 | 217 | 4.0 | 9.0 | 0.03 | 0.84 | 0.13 | 97 | 1009.3 |
| 20260506021832 | 56 | 179 | 4.0 | 6.0 | 0.02 | 0.83 | 0.12 | 97 | 1009.6 |
| 20260506020347 | 56 | 163 | 3.0 | 6.0 | 0.01 | 0.82 | 0.11 | 97 | 1009.6 |
| 20260506014836 | 56 | 182 | 2.0 | 5.0 | 0.03 | 0.82 | 0.11 | 96 | 1009.6 |
| 20260506013336 | 56 | 209 | 3.0 | 7.0 | 0.10 | 0.81 | 0.10 | 96 | 1009.6 |
| 20260506011826 | 56 | 222 | 2.0 | 10.0 | 0.10 | 0.81 | 0.10 | 96 | 1009.7 |
| 20260506010343 | 56 | 192 | 3.0 | 7.0 | 0.10 | 0.81 | 0.10 | 96 | 1009.8 |
| 20260506004836 | 56 | 209 | 2.0 | 6.0 | 0.08 | 0.79 | 0.08 | 96 | 1010.0 |
| 20260506003332 | 56 | 143 | 0.0 | 4.0 | 0.00 | 0.71 | 0.00 | 96 | 1010.2 |
| 20260506001829 | 56 | 132 | 2.0 | 3.0 | 0.00 | 0.71 | 0.00 | 96 | 1010.3 |
| 20260506000344 | 56 | 129 | 2.0 | 4.0 | 0.00 | 0.71 | 0.00 | 96 | 1010.5 |
| 20260505234837 | 55 | 134 | 1.0 | 4.0 | 0.00 | 0.71 | 0.00 | 96 | 1010.7 |
| 20260505233332 | 55 | 146 | 0.0 | 0.0 | 0.00 | 0.71 | 0.00 | 96 | 1010.9 |
| 20260505231845 | 55 | 146 | 0.0 | 0.0 | 0.00 | 0.71 | 0.00 | 96 | 1010.9 |
| 20260505230337 | 55 | 146 | 0.0 | 0.0 | 0.00 | 0.71 | 0.00 | 96 | 1011.0 |
| 20260505224831 | 55 | 144 | 0.0 | 3.0 | 0.00 | 0.71 | 0.00 | 96 | 1011.1 |
| 20260505223344 | 55 | 145 | 0.0 | 3.0 | 0.00 | 0.71 | 0.00 | 96 | 1011.2 |
| 20260505221841 | 55 | 135 | 1.0 | 4.0 | 0.00 | 0.71 | 0.00 | 96 | 1011.3 |
| 20260505220341 | 55 | 158 | 2.0 | 5.0 | 0.00 | 0.71 | 0.00 | 96 | 1011.3 |
| 20260505214831 | 55 | 140 | 4.0 | 6.0 | 0.00 | 0.71 | 0.71 | 96 | 1011.4 |
| 20260505213344 | 55 | 161 | 1.0 | 4.0 | 0.00 | 0.71 | 0.71 | 96 | 1011.7 |
| 20260505211840 | 55 | 161 | 0.0 | 4.0 | 0.00 | 0.71 | 0.71 | 96 | 1011.8 |
| 20260505210332 | 55 | 186 | 1.0 | 3.0 | 0.00 | 0.71 | 0.71 | 96 | 1011.8 |
| 20260505204836 | 55 | 147 | 2.0 | 3.0 | 0.01 | 0.71 | 0.71 | 96 | 1011.9 |
| 20260505203335 | 55 | 204 | 0.0 | 4.0 | 0.01 | 0.71 | 0.71 | 96 | 1011.9 |
| 20260505201845 | 55 | 171 | 1.0 | 4.0 | 0.01 | 0.71 | 0.71 | 96 | 1012.0 |
| 20260505200336 | 55 | 182 | 3.0 | 5.0 | 0.01 | 0.71 | 0.71 | 96 | 1012.0 |